Location: Ballingbuur
(53.0000°N, 5.7667°E)
Time: 07:06:48
(UTC+00:00)

RESURS DK-1 - Pass Details

Date: 29 November 2020
Orbit: 557 x 560 km, 69.9° (Epoch: 23 January)

Event Time Altitude Azimuth Distance (km) Brightness Sun altitude
Rises 06:04:53 0° 231° (SW) 2,743 5.6 -11.4°
Reaches altitude 10° 06:07:09 10° 238° (WSW) 1,851 4.7 -11.1°
Maximum altitude 06:11:07 44° 311° (NW) 788 2.7 -10.5°
Drops below altitude 10° 06:15:07 10° 24° (NNE) 1,863 5.0 -10.0°
Sets 06:17:25 0° 31° (NNE) 2,763 6.0 -9.6°
